[[{"header":{"parameterUnit":"m.s-1","parameterCategory":1,"la1":30.2991,"la2":30.254,"lo1":-89.0895,"lo2":-89.0444,"dy":0.0017,"dx":0.0017,"nx":28,"ny":28,"refTime":"2023-09-16T21:00:00:Z","depth":0,"parameterNumber":2,"parameterNumberName":"U-component_of_WINDS"},"data":[0,0,0,0,0,0,0,0,0,0,0,0,0,0,0,0,0,0,0,0,0,0,0,0,0,0,0,0,0,0,0,0,0,0,0,0,0,0,0,0,0,0,0,0,0,0,0,0,0,0,0,0,0,0,0,0,0,0,0.5734,0.5733,0,0.5644,0.5643,0.5642,0.5563,0.5563,0.5562,0.5561,0.5471,0.547,0.5468,0,0,0,0,0,0,0,0,0,0,0,0,0,0.584,0.5838,0.5734,0.5733,0.5731,0.5644,0.5643,0.5642,0.5564,0.5563,0.5561,0.556,0.5472,0.547,0.5468,0,0,0,0,0,0,0,0,0,0,0,0,0,0.5776,0.5838,0.5734,0.5682,0.5676,0.5644,0.5643,0.5641,0.5564,0.5562,0.5561,0.556,0.5472,0.547,0.5468,0.5481,0,0,0.5461,0.546,0,0,0,0,0,0,0,0,0.578,0.5772,0.5691,0.5685,0.5679,0.5613,0.5647,0.5588,0.5564,0.5607,0.5561,0.5559,0.552,0.5513,0.55,0.5476,0.5473,0.546,0.5459,0.5458,0.5457,0,0,0,0,0,0,0,0.5784,0.5776,0.5698,0.569,0.5682,0.5664,0.5653,0.5636,0.5572,0.5603,0.5597,0.5587,0.5516,0.5502,0.5497,0.5471,0.546,0.5458,0.5457,0.5456,0.5456,0.5457,0,0,0,0,0,0,0.5796,0.578,0.5701,0.5695,0.5727,0.5663,0.5651,0.5636,0.5572,0.5561,0.5589,0.5584,0.5507,0.55,0.5493,0.5506,0.5458,0.5456,0.5454,0.5455,0.5456,0.5458,0,0,0,0,0,0,0.5799,0.579,0.5705,0.5736,0.5724,0.5663,0.5646,0.5635,0.5621,0.5561,0.555,0.5586,0.5505,0.5497,0.5485,0.5502,0.5455,0.5453,0.5453,0.5455,0.5457,0.553,0,0,0,0,0,0,0.5802,0.5792,0.5795,0.5737,0.5722,0.5697,0.5647,0.5634,0.5617,0.561,0.5555,0.5545,0.5504,0.5489,0.5482,0.5498,0.5451,0.5451,0.5454,0.5457,0.5526,0.5535,0.5542,0,0,0,0,0,0.5806,0.5819,0.5796,0.5787,0.5726,0.5698,0.569,0.5641,0.5618,0.5622,0.5584,0.5547,0.5501,0.5488,0.548,0.5495,0.545,0.5453,0.5456,0.5523,0.5533,0.5542,0,0,0,0,0,0,0.5882,0.5811,0.5784,0.5778,0.5745,0.5685,0.5688,0.5654,0.5627,0.5621,0.5563,0.5551,0.5546,0.5519,0.5506,0.5505,0.547,0.5472,0.5523,0.5533,0.554,0.5548,0.5449,0,0,0,0,0,0.5897,0.588,0.5819,0.582,0.5805,0.575,0.5735,0.5701,0.5664,0.565,0.5611,0.5578,0.5556,0.5542,0.5519,0.5521,0.5509,0.5528,0.5536,0.5543,0.5545,0.5547,0.5555,0.5468,0.5468,0.5468,0,0,0.593,0.5889,0.5882,0.5834,0.5804,0.5789,0.5738,0.5723,0.5712,0.5648,0.5635,0.5605,0.5564,0.556,0.5556,0.5537,0.5566,0.5547,0.5553,0.5551,0.5551,0.5559,0.5566,0.547,0.547,0.547,0,0,0.5982,0.5949,0.5946,0.5918,0.5873,0.5836,0.5836,0.5781,0.5759,0.5745,0.5697,0.5683,0.5646,0.5619,0.56,0.5644,0.5609,0.5638,0.5679,0.5681,0.5688,0.5694,0.5711,0.5718,0.564,0.564,0.564,0,0.6028,0.6002,0.595,0.5938,0.592,0.5861,0.5859,0.5834,0.5784,0.5773,0.5752,0.5706,0.5674,0.5663,0.5674,0.566,0.566,0.5644,0.5691,0.5696,0.5701,0.5717,0.5723,0.5644,0.5644,0.5643,0.5643,0,0.6063,0.6046,0.6049,0.6003,0.5984,0.5978,0.5925,0.5913,0.5881,0.5847,0.5834,0.5793,0.5761,0.5756,0.5724,0.5742,0.5732,0.5702,0.5666,0.5714,0.5728,0.5734,0.565,0.5648,0.5647,0.5646,0,0,0.6159,0.6084,0.6087,0.6066,0.6013,0.5999,0.5991,0.5959,0.5951,0.5918,0.5911,0.5882,0.5854,0.5833,0.5798,0.5799,0.5839,0.5769,0.5768,0.5785,0.5858,0.5882,0.589,0.5815,0.5816,0.5817,0.5862,0,0.6204,0.6185,0.6138,0.6134,0.6118,0.6063,0.6056,0.6023,0.5992,0.5975,0.5939,0.592,0.5884,0.5872,0.5871,0.5834,0.5853,0.583,0.5809,0.5809,0.5823,0.5897,0.5921,0.5966,0.5867,0.5868,0.5868,0,0.6253,0.6225,0.6219,0.6169,0.616,0.6155,0.6123,0.6107,0.6069,0.6046,0.6024,0.5985,0.5974,0.594,0.5926,0.5912,0.59,0.5881,0.5882,0.5879,0.5843,0.5898,0.5979,0.5987,0.5876,0.5876,0.5875,0,0.6326,0.6287,0.6279,0.6262,0.6202,0.62,0.6175,0.6136,0.6121,0.6093,0.6083,0.6055,0.604,0.6019,0.5974,0.5953,0.5966,0.5927,0.5948,0.5949,0.5954,0.5954,0.6036,0.5944,0.5944,0.5944,0.5944,0,0.6381,0.6381,0.6311,0.6306,0.6305,0.6251,0.6251,0.6221,0.6187,0.6177,0.6126,0.6118,0.6058,0.6043,0.6008,0.6003,0.5996,0.5978,0.5969,0.5983,0.5986,0.5976,0.5972,0.5945,0.5945,0.5945,0.5944,0,0.6463,0.6416,0.6404,0.6349,0.6335,0.6337,0.6289,0.6284,0.6249,0.6237,0.623,0.6177,0.6156,0.6109,0.6076,0.6053,0.6057,0.6039,0.607,0.6065,0.6088,0.6087,0.6168,0.6177,0.6078,0.6079,0.608,0,0.6502,0.6501,0.6445,0.6435,0.6412,0.6395,0.6379,0.6327,0.6312,0.6271,0.627,0.6246,0.6224,0.6195,0.6153,0.6128,0.6111,0.6141,0.6107,0.6122,0.6113,0.6115,0.6115,0.6149,0.615,0.6151,0.6152,0,0.6577,0.6555,0.6533,0.6505,0.6487,0.6462,0.6434,0.6429,0.637,0.6357,0.6335,0.6318,0.6285,0.6262,0.6231,0.6207,0.6171,0.6163,0.6167,0.6182,0.6201,0.6193,0.6092,0.6162,0.6161,0.616,0.6159,0.6159,0.664,0.6637,0.6598,0.6576,0.655,0.6526,0.6518,0.6483,0.6464,0.6433,0.6403,0.6385,0.6349,0.6304,0.6282,0.6268,0.6249,0.6254,0.6255,0.6258,0.6265,0.6202,0.6262,0.6261,0.6261,0.6261,0.626,0,0.6714,0.6686,0.6667,0.663,0.6614,0.658,0.6548,0.6537,0.6522,0.6491,0.6471,0.6448,0.6426,0.6383,0.6357,0.6355,0.6338,0.635,0.635,0.6346,0.6282,0.6282,0.6364,0.6364,0.6364,0.6364,0.6364,0.6364,0.675,0.6744,0.6717,0.6697,0.6669,0.6651,0.6636,0.6614,0.6589,0.6565,0.6547,0.6519,0.6484,0.6456,0.6435,0.6423,0.6416,0.6435,0.6418,0.636,0.635,0.6341,0.6341,0.6433,0.6433,0.6482,0.6483,0.6483]},{"header":{"parameterUnit":"m.s-1","parameterCategory":1,"la1":30.2991,"la2":30.254,"lo1":-89.0895,"lo2":-89.0444,"dy":0.0017,"dx":0.0017,"nx":28,"ny":28,"refTime":"2023-09-16T21:00:00:Z","depth":0,"parameterNumber":3,"parameterNumberName":"V-component_of_WINDS"},"data":[0,0,0,0,0,0,0,0,0,0,0,0,0,0,0,0,0,0,0,0,0,0,0,0,0,0,0,0,0,0,0,0,0,0,0,0,0,0,0,0,0,0,0,0,0,0,0,0,0,0,0,0,0,0,0,0,0,0,1.5365,1.5364,0,1.5206,1.5204,1.5202,1.5132,1.5132,1.5132,1.5132,1.4965,1.4961,1.4956,0,0,0,0,0,0,0,0,0,0,0,0,0,1.5606,1.5602,1.5366,1.5363,1.5361,1.5206,1.5204,1.5202,1.5132,1.5132,1.5132,1.5132,1.4967,1.4961,1.4956,0,0,0,0,0,0,0,0,0,0,0,0,0,1.548,1.5601,1.5366,1.5308,1.5301,1.5206,1.5204,1.5201,1.5131,1.5132,1.5132,1.5132,1.4969,1.4962,1.4955,1.4905,0,0,1.4934,1.4931,0,0,0,0,0,0,0,0,1.5487,1.5471,1.5318,1.5312,1.5304,1.5189,1.5227,1.5102,1.5131,1.5196,1.5132,1.5133,1.5039,1.5026,1.4996,1.4897,1.489,1.4933,1.4929,1.4926,1.4924,0,0,0,0,0,0,0,1.5496,1.5477,1.5302,1.5316,1.5307,1.5289,1.5271,1.5203,1.5117,1.519,1.5185,1.5167,1.5035,1.5003,1.4991,1.4888,1.4933,1.4927,1.4923,1.492,1.474,1.474,0,0,0,0,0,0,1.5515,1.5485,1.5307,1.5297,1.5398,1.5284,1.5264,1.5225,1.5118,1.5102,1.5167,1.5164,1.5014,1.4999,1.4985,1.4919,1.4926,1.4919,1.4915,1.4741,1.474,1.474,0,0,0,0,0,0,1.552,1.5499,1.5314,1.539,1.5365,1.528,1.5236,1.5222,1.5189,1.51,1.5084,1.5149,1.5014,1.4995,1.4926,1.4913,1.4916,1.491,1.4742,1.4741,1.474,1.4788,0,0,0,0,0,0,1.5527,1.5502,1.5483,1.539,1.5361,1.5258,1.5236,1.5219,1.5178,1.5173,1.508,1.5065,1.5013,1.4937,1.4919,1.4903,1.4904,1.4742,1.4741,1.474,1.4787,1.4789,1.4791,0,0,0,0,0,1.5536,1.5502,1.5482,1.5461,1.5335,1.5257,1.5241,1.5183,1.5177,1.5157,1.51,1.5067,1.4917,1.493,1.4909,1.4892,1.4743,1.4742,1.474,1.4787,1.4789,1.4791,0,0,0,0,0,0,1.5593,1.5488,1.5465,1.54,1.5339,1.5246,1.5218,1.5187,1.5124,1.5122,1.5052,1.5032,1.4969,1.4923,1.4939,1.4838,1.4827,1.4822,1.487,1.4871,1.4873,1.4884,1.4898,0,0,0,0,0,1.5599,1.5545,1.5456,1.5407,1.5377,1.5303,1.5267,1.5228,1.5161,1.5134,1.5072,1.5007,1.4945,1.4905,1.4844,1.4781,1.4759,1.4758,1.476,1.4762,1.4758,1.4721,1.472,1.4735,1.4735,1.4735,0,0,1.5608,1.5544,1.5515,1.5417,1.5364,1.531,1.5282,1.5225,1.5183,1.5125,1.5056,1.5009,1.4931,1.4866,1.4833,1.4825,1.4749,1.476,1.4762,1.4757,1.472,1.4719,1.4717,1.4734,1.4735,1.4735,0,0,1.5598,1.5545,1.5498,1.5447,1.5369,1.532,1.5309,1.5221,1.5187,1.5118,1.5073,1.5022,1.4917,1.4864,1.4823,1.4795,1.4763,1.4777,1.4785,1.475,1.4749,1.4748,1.4737,1.4734,1.4773,1.4773,1.4773,0,1.562,1.5537,1.5478,1.5424,1.5382,1.5329,1.528,1.5233,1.5138,1.511,1.5103,1.4971,1.4915,1.4836,1.483,1.4798,1.4783,1.4787,1.4754,1.4752,1.475,1.4739,1.4736,1.4775,1.4775,1.4775,1.4775,0,1.5567,1.551,1.5482,1.5394,1.5348,1.5298,1.523,1.5192,1.5157,1.5109,1.5039,1.497,1.4894,1.4873,1.4837,1.4789,1.4786,1.4768,1.4756,1.4752,1.474,1.4736,1.4779,1.4778,1.4777,1.4777,0,0,1.5587,1.5468,1.5458,1.5418,1.5328,1.5282,1.523,1.5156,1.5124,1.5061,1.5014,1.4927,1.491,1.4864,1.4823,1.4793,1.4775,1.4777,1.4775,1.4779,1.4717,1.4731,1.4727,1.4753,1.4752,1.4752,1.4723,0,1.5564,1.5468,1.5414,1.534,1.5286,1.5236,1.5189,1.5129,1.5083,1.503,1.4978,1.4918,1.49,1.4872,1.484,1.4784,1.4761,1.4785,1.4708,1.4706,1.4729,1.4721,1.4735,1.4712,1.4718,1.4717,1.4717,0,1.5524,1.5464,1.5385,1.5302,1.5278,1.5237,1.5166,1.5117,1.5047,1.5016,1.4966,1.4925,1.4866,1.486,1.4778,1.4796,1.4761,1.4729,1.4727,1.4716,1.4711,1.471,1.4702,1.4699,1.4709,1.471,1.471,0,1.5547,1.5445,1.5385,1.5352,1.5254,1.5227,1.5184,1.5115,1.5075,1.5013,1.4986,1.4917,1.4879,1.4827,1.4768,1.4769,1.4692,1.4681,1.4664,1.4665,1.4649,1.4651,1.4635,1.4628,1.4628,1.4628,1.4628,0,1.5526,1.548,1.5394,1.5357,1.5303,1.5241,1.519,1.5143,1.5083,1.5035,1.4986,1.4943,1.4869,1.4815,1.4769,1.4709,1.4692,1.4664,1.4652,1.4668,1.4672,1.4644,1.4644,1.4627,1.4628,1.4628,1.4628,0,1.5542,1.5482,1.5413,1.5327,1.5304,1.5268,1.5194,1.5155,1.5108,1.5048,1.503,1.4955,1.489,1.4827,1.4739,1.4709,1.4648,1.4633,1.4672,1.4665,1.4651,1.4654,1.4617,1.4609,1.4609,1.4609,1.4609,0,1.5532,1.5496,1.5406,1.5372,1.5331,1.5275,1.5235,1.5173,1.5132,1.5051,1.5022,1.4954,1.4896,1.4795,1.4731,1.4664,1.4647,1.4639,1.4636,1.4653,1.4646,1.4649,1.4645,1.464,1.464,1.464,1.4641,0,1.5522,1.5495,1.5439,1.5372,1.5325,1.527,1.5212,1.5186,1.5113,1.507,1.5004,1.4959,1.4871,1.4803,1.4729,1.4684,1.465,1.4642,1.4635,1.465,1.4674,1.4661,1.4676,1.4643,1.4643,1.4643,1.4642,1.4642,1.5524,1.5489,1.5422,1.536,1.5311,1.5259,1.5219,1.5167,1.5111,1.5035,1.5002,1.4935,1.4867,1.4764,1.472,1.4667,1.4658,1.4647,1.4644,1.4642,1.4646,1.4684,1.4653,1.4653,1.4653,1.4652,1.4652,0,1.5511,1.5465,1.541,1.5332,1.5284,1.5258,1.5193,1.5155,1.5097,1.5037,1.4982,1.4906,1.4841,1.4773,1.4704,1.4674,1.4657,1.4658,1.4659,1.4649,1.4657,1.4671,1.4673,1.4673,1.4673,1.4673,1.4673,1.4673,1.5499,1.5439,1.5404,1.5319,1.5273,1.5208,1.5174,1.5125,1.5077,1.4995,1.4941,1.4898,1.4835,1.4761,1.47,1.4682,1.4658,1.4664,1.4641,1.465,1.4649,1.4647,1.4659,1.4659,1.4659,1.4637,1.4637,1.4637]}]]